Tracking 35280 objects as of 7-Sep-2026
HD Live streaming from Space Station
objects crossing your sky now

OPS 9322 (IDSCS 9)

Track OPS 9322 (IDSCS 9) now!
OPS 9322 (IDSCS 9) is classified as:


NORAD ID: 2649
Int'l Code: 1967-003B
Launch date: January 18, 1967
Source: United States (US)
Launch site: AIR FORCE EASTERN TEST RANGE (AFETR)
Your satellite tracking list
Your tracking list is empty




NASA's NSSDC Master Catalog

Two Line Element Set (TLE):
1 02649U 67003B   26249.26743413 -.00000069  00000-0  00000-0 0  9996
2 02649   8.4499  43.7609 0034974 123.7969  75.1066  1.08281326140315
Source of the keplerian elements: AFSPC